FW5346 Weather Reports


Display with metric or nautical units.
time (UTC)temp
F
wind
direction
speed
MPH
gust
MPH
rain 1hr
in
rain 24hr
in
rain mn
in
humidity
%
barometer
mb
20260507230036 55 230 13.0 18.0 0.00 0.66 0.66 80 1002.1
20260507224537 57 169 4.0 12.0 0.00 0.66 0.66 84 1001.5
20260507223035 56 141 8.0 16.0 0.00 0.66 0.66 84 1001.4
20260507221535 56 138 8.0 15.0 0.00 0.66 0.66 84 1001.5
20260507220033 56 150 15.0 23.0 0.00 0.66 0.66 84 1001.4
20260507214533 57 147 12.0 21.0 0.00 0.66 0.66 84 1001.4
20260507213032 56 148 12.0 19.0 0.00 0.66 0.66 84 1001.0
20260507211533 56 152 13.0 22.0 0.00 0.66 0.66 85 1001.0
20260507210033 56 161 15.0 24.0 0.00 0.66 0.66 85 1001.3
20260507204531 56 129 18.0 23.0 0.02 0.66 0.66 83 1001.3
20260507203031 58 158 16.0 21.0 0.09 0.66 0.66 83 1001.1
20260507201537 57 106 12.0 18.0 0.16 0.66 0.66 85 1000.6
20260507200043 56 131 12.0 24.0 0.19 0.66 0.66 85 1000.2
20260507194527 55 118 18.0 26.0 0.20 0.65 0.65 88 1001.2
20260507193023 55 134 19.0 25.0 0.17 0.56 0.56 89 1002.1
20260507191520 55 176 9.0 16.0 0.16 0.50 0.50 88 1003.5
20260507190018 55 156 10.0 19.0 0.20 0.47 0.47 88 1003.2
20260507184517 55 125 12.0 22.0 0.30 0.44 0.44 88 1003.6
20260507183030 55 154 15.0 26.0 0.38 0.39 0.39 88 1003.9
20260507181514 55 171 12.0 17.0 0.34 0.34 0.34 89 1004.3
20260507180012 55 185 8.0 18.0 0.27 0.27 0.27 89 1004.4
20260507174512 55 168 12.0 21.0 0.13 0.13 0.13 88 1004.8
20260507173007 56 201 12.0 26.0 0.01 0.01 0.01 85 1004.3
20260507171505 57 189 18.0 32.0 0.00 0.00 0.00 84 1003.3
20260507170003 58 188 12.0 29.0 0.00 0.00 0.00 82 1003.4
20260507164502 58 171 17.0 32.0 0.00 0.00 0.00 80 1003.6
20260507163001 59 203 22.0 40.0 0.00 0.00 0.00 78 1003.8
20260507161613 60 343 23.0 30.0 0.00 0.00 0.00 77 1004.0
20260507160100 60 140 16.0 32.0 0.00 0.00 0.00 77 1004.5
20260507154557 61 159 15.0 32.0 0.00 0.00 0.00 75 1004.8
20260507153055 61 144 20.0 35.0 0.00 0.00 0.00 74 1005.0
20260507151554 62 159 20.0 37.0 0.00 0.00 0.00 74 1005.7
20260507150054 61 178 17.0 30.0 0.00 0.00 0.00 75 1005.7
20260507144551 62 171 18.0 35.0 0.00 0.00 0.00 74 1005.8
20260507143052 61 191 23.0 34.0 0.00 0.00 0.00 75 1005.7
20260507141552 61 171 20.0 31.0 0.00 0.00 0.00 77 1006.5
20260507140045 60 190 17.0 31.0 0.00 0.00 0.00 79 1006.6
20260507134553 60 183 24.0 36.0 0.00 0.00 0.00 78 1006.7
20260507133044 59 175 24.0 47.0 0.00 0.00 0.00 79 1006.5
20260507131542 59 173 20.0 37.0 0.00 0.00 0.00 80 1006.8
20260507130043 59 165 24.0 42.0 0.00 0.00 0.00 82 1007.1
20260507124540 59 152 20.0 37.0 0.00 0.00 0.00 80 1007.2
20260507123039 59 189 21.0 43.0 0.00 0.00 0.00 81 1007.3
20260507121537 58 154 26.0 38.0 0.00 0.00 0.00 82 1007.0
20260507120036 58 146 26.0 36.0 0.00 0.00 0.00 82 1007.2
20260507114536 58 131 22.0 36.0 0.00 0.00 0.00 83 1007.7
20260507113033 58 189 24.0 37.0 0.00 0.00 0.00 83 1008.0
20260507111532 59 161 22.0 42.0 0.00 0.00 0.00 81 1008.8
20260507110045 58 140 22.0 40.0 0.00 0.00 0.00 82 1008.7
20260507104530 58 173 21.0 31.0 0.00 0.00 0.00 82 1008.4
20260507103030 58 185 18.0 40.0 0.00 0.00 0.00 82 1008.8
20260507101533 58 172 21.0 34.0 0.00 0.00 0.00 82 1008.7
20260507100033 58 148 27.0 38.0 0.00 0.00 0.00 81 1009.2
20260507094525 58 156 20.0 30.0 0.00 0.00 0.00 82 1008.3
20260507093023 58 165 19.0 31.0 0.00 0.00 0.00 82 1009.7
20260507091521 57 148 20.0 29.0 0.00 0.00 0.00 83 1009.7
20260507090030 57 181 16.0 30.0 0.00 0.00 0.00 83 1010.2
20260507084530 58 183 19.0 35.0 0.00 0.00 0.00 83 1010.1
20260507083015 58 160 13.0 26.0 0.00 0.00 0.00 81 1010.7
20260507081515 58 150 15.0 28.0 0.00 0.00 0.00 82 1010.2
20260507080008 58 163 14.0 25.0 0.00 0.00 0.00 81 1010.4
20260507074522 59 175 11.0 18.0 0.00 0.00 0.00 80 1010.8
20260507073004 59 160 16.0 23.0 0.00 0.00 0.00 80 1011.0
20260507071501 59 144 14.0 26.0 0.00 0.00 0.00 79 1011.7
20260507070108 59 173 14.0 24.0 0.00 0.00 0.00 78 1011.9
20260507064600 59 158 13.0 25.0 0.00 0.00 0.00 77 1011.8
20260507063058 59 170 14.0 24.0 0.00 0.00 0.00 77 1011.8
20260507061557 59 133 14.0 25.0 0.00 0.00 0.00 75 1011.9
20260507060106 59 167 12.0 22.0 0.00 0.00 0.00 74 1012.4
20260507054554 60 138 15.0 25.0 0.00 0.00 0.00 72 1012.2
20260507053052 60 156 15.0 24.0 0.00 0.00 0.00 65 1012.8
20260507051544 60 144 18.0 30.0 0.00 0.00 0.00 62 1013.2
20260507050043 60 145 18.0 29.0 0.00 0.00 0.00 65 1013.3
20260507044537 60 343 15.0 21.0 0.00 0.00 0.00 67 1014.0
20260507043034 60 191 8.0 18.0 0.00 0.00 0.00 68 1014.4
20260507041532 59 343 13.0 23.0 0.00 0.00 0.00 69 1014.7
20260507040027 60 140 11.0 23.0 0.00 0.00 0.00 69 1015.1
20260507034544 60 142 12.0 24.0 0.00 0.00 0.00 70 1015.2
20260507033022 60 184 15.0 22.0 0.00 0.00 0.00 70 1015.6
20260507031519 60 160 11.0 29.0 0.00 0.00 0.00 70 1015.8
20260507030018 60 155 16.0 26.0 0.00 0.00 0.00 69 1016.0
20260507024528 60 157 12.0 29.0 0.00 0.00 0.00 68 1016.3
20260507023013 60 194 13.0 28.0 0.00 0.00 0.00 69 1016.6
20260507021513 60 163 14.0 26.0 0.00 0.00 0.00 68 1016.5
20260507020013 61 153 21.0 32.0 0.00 0.00 0.00 68 1016.6
20260507014522 61 165 19.0 36.0 0.00 0.00 0.00 69 1016.7
20260507013011 61 138 16.0 28.0 0.00 0.00 0.00 69 1016.6
20260507011525 61 188 15.0 27.0 0.00 0.00 0.00 69 1016.8
20260507010017 61 165 17.0 28.0 0.00 0.00 0.00 69 1017.1
20260507004509 61 175 21.0 31.0 0.00 0.00 0.00 68 1017.1
20260507003015 61 194 17.0 26.0 0.00 0.00 0.00 68 1016.9
20260507001508 61 181 16.0 30.0 0.00 0.00 0.00 68 1017.1
20260507000006 61 193 13.0 25.0 0.00 0.00 0.00 68 1016.9
20260506234505 62 192 13.0 25.0 0.00 0.00 0.00 66 1016.7
20260506233004 62 173 14.0 22.0 0.00 0.00 0.00 65 1016.5